Location: Losili
(4.4086°N, 32.7049°E)
Time: 16:34:49
(UTC+00:00)

CZ-3B R/B - Pass Details

Date: 18 September 2019
Orbit: 144 x 3505 km, 27.0° (Epoch: 20 October)

Event Time Altitude Azimuth Distance (km) Brightness Sun altitude
Rises 18:41:55 0° 238° (WSW) 6,994 7.0 -44.3°
Reaches altitude 10° 18:47:41 10° 237° (WSW) 5,372 6.3 -45.7°
Enters shadow 18:57:13 40° 228° (SW) 2,443 4.1 -48.0°
